Погода в Новопетровке

Украина / Запорожская область     46°49′29″N   36°53′32″E
темп.,
°C
ветер,
м/с
пор.,
м/с
влажн.,
%
обл.,
%
осадки,
мм/ч
давл.,
гПа
погр.,
м
22 апреля, чт
чт2200:00+9юз35885 0.0 102061
03:00+9з23905 0.0 102141
06:00+8зсз22875 0.0 102124
09:00+10юз22825 0.0 1022176
12:00+11юз447698 0.0 1023345
15:00+11юз567666 0.0 1023322
18:00+11юз44750 0.0 1022138
21:00+10юз44790 0.0 102343
23 апреля, пт
пт2300:00+10юз33805 0.0 102320
03:00+10юз23805 0.0 102315
06:00+10ююз33824 0.0 102222
09:00+11юз34815 0.0 1023183
12:00+11ююз5676100 0.0 1022274
15:00+12ю68757 0.0 1021314
18:00+11ююз61077100 0.0 1019230
21:00+11ююз61179100 0.0 1019219
24 апреля, сб
сб2400:00+10юз61284100 0.1 1018289
03:00+10юз588945 0.1 1016190
06:00+10зюз5108799 0.0 1016249
09:00+10сз678542 0.0 1017447
12:00+12зсз56585 0.0 1018507
15:00+12юз9106238 0.0 1018827
18:00+11зюз8116781 0.0 1019634
21:00+9сз7125690 0.0 1021740
25 апреля, вс
вс2500:00+7сз595770 0.0 1022319
03:00+6сз455615 0.0 1023162
06:00+6сз3454100 0.0 1023149
09:00+8сз234994 0.0 1023521
12:00+10ю3246100 0.0 1022653
15:00+9ю5449100 0.0 1021469
18:00+9ююз3349100 0.0 1021325
21:00+9з2251100 0.0 1021131
26 апреля, пн
пн2600:00+8сз335693 0.0 1020112
03:00+7ссз4461100 0.0 1019109
06:00+7сз3360100 0.0 1019119
09:00+9з23530 0.0 1019335
12:00+10юз66598 0.0 1018638
15:00+11зюз896413 0.0 1018786
18:00+10з23735 0.2 1018225
21:00+9зюз57775 0.3 1019260